RH
6 8 10 12 13 14 16 18 19 19 17 16 17 19 20 21 22 21 21 20 20 20 19 19 16 17 20 22 23 24 25 23 19 14 13 16 16 16 16 14 11 8 7 8 9 9 11 12 13 15 13 11 12 14 18 17 15 17 29 39 36 40 37 28 28 27 28 30 31 28 25 31 35 37 37 39 37 31 30 28 29 31 31 32 32 33 30 32
8 11 13 15 17 19 21 22 22 21 18 15 17 20 20 22 23 21 20 18 18 18 17 17 18 16 16 20 23 23 26 24 19 17 18 19 18 19 19 17 17 15 12 11 11 9 9 11 11 11 9 8 12 15 16 16 17 19 30 38 36 38 33 23 24 24 26 27 29 29 26 29 32 31 32 45 48 37 38 33 26 29 29 31 31 31 30 28
11 13 16 18 21 22 23 22 21 21 18 15 17 19 21 23 22 18 17 18 17 16 15 14 16 16 14 17 21 21 24 22 18 20 20 19 20 21 21 21 22 21 19 17 16 15 13 12 13 12 10 10 12 14 15 17 19 19 26 39 36 31 26 21 23 22 23 23 25 31 28 30 32 29 34 48 51 44 45 37 28 29 28 30 31 31 31 28
13 15 19 22 24 24 23 22 21 21 19 16 18 20 22 22 19 17 18 18 16 15 15 14 13 13 12 13 16 18 21 22 21 22 21 19 21 21 22 23 23 22 21 21 19 18 17 16 15 14 14 13 11 12 16 17 18 22 32 38 29 24 25 23 22 20 22 24 25 30 32 34 31 31 38 46 54 52 42 33 28 29 28 30 31 31 31 29
16 20 22 24 24 23 23 22 20 21 20 18 19 20 21 21 17 16 19 18 17 18 19 18 16 15 14 15 18 20 23 28 24 20 21 20 20 21 22 23 21 19 17 19 19 18 19 17 15 15 15 15 18 19 19 16 17 27 31 26 21 20 24 23 21 21 22 25 27 31 35 35 30 33 37 42 59 56 36 31 29 28 29 30 31 32 32 30
20 23 24 24 23 23 23 21 20 20 20 19 19 21 21 20 16 16 19 18 17 19 18 17 19 19 19 19 20 21 26 30 23 20 21 19 21 21 22 22 21 17 11 14 16 17 18 17 17 16 17 19 25 26 21 17 20 34 31 19 19 18 21 23 19 23 25 26 28 30 32 31 32 37 37 38 49 44 33 32 30 29 30 30 31 31 32 31
22 24 24 24 23 23 23 21 20 20 20 19 19 21 21 18 15 16 19 19 17 16 16 17 18 20 21 23 21 18 21 25 22 22 21 18 20 19 21 23 21 18 11 8 11 17 16 16 19 17 23 29 25 22 21 19 21 36 35 18 17 17 18 21 20 24 25 26 28 28 29 30 35 39 38 38 38 34 33 32 29 31 30 29 31 30 31 32
23 24 24 23 24 23 23 22 20 20 19 18 19 20 21 18 15 16 18 19 17 16 17 17 18 19 21 27 30 20 18 24 23 23 22 20 20 18 19 21 22 21 14 7 8 15 14 16 21 18 27 30 23 23 26 32 34 35 32 17 14 18 18 19 21 24 24 26 27 28 29 30 32 33 36 40 37 34 32 31 30 29 30 30 30 31 31 31
24 24 24 24 24 23 23 23 20 19 18 18 18 20 20 17 14 14 15 15 16 15 14 14 14 18 21 23 27 22 19 23 21 21 23 20 20 18 16 18 21 21 15 10 8 12 13 17 21 19 26 25 24 31 30 44 49 32 23 18 16 17 18 20 21 23 23 25 26 28 31 31 28 28 34 37 35 34 30 28 29 29 30 30 29 31 31 31
24 24 24 24 24 24 23 22 20 18 17 18 19 20 20 15 12 12 12 13 14 14 15 16 13 15 18 15 17 21 20 21 19 21 23 21 20 17 12 14 18 17 16 15 14 16 18 20 20 20 26 23 24 31 32 42 43 29 21 16 16 17 18 21 20 21 21 22 24 27 33 32 26 31 36 32 30 31 27 27 27 28 29 29 29 30 30 31
24 24 24 24 24 23 21 20 19 17 17 18 20 21 16 12 11 12 14 14 14 16 20 23 18 13 12 10 15 21 19 19 19 19 22 21 19 16 11 9 12 13 15 19 20 22 22 21 19 21 27 27 25 25 28 34 32 28 22 15 20 18 15 19 19 19 20 21 21 22 31 31 26 36 40 29 27 28 26 26 25 26 28 28 29 29 30 31
24 24 24 24 23 21 19 18 17 16 17 20 22 20 15 13 14 14 14 13 13 15 18 21 18 13 11 11 16 19 17 18 19 20 22 21 18 17 11 8 9 9 13 19 20 22 23 21 20 22 25 30 33 27 24 31 31 26 20 22 37 37 26 20 16 18 20 22 20 21 32 37 35 38 35 27 26 27 25 25 25 25 27 27 29 29 30 31
23 24 23 23 22 20 18 17 16 17 18 21 22 19 16 14 14 14 13 13 13 14 19 25 23 14 10 13 15 16 15 15 16 17 20 21 20 18 13 9 8 7 10 14 18 18 17 19 21 21 21 26 32 27 24 28 26 26 29 35 48 50 40 24 15 18 19 20 20 24 32 38 41 36 28 28 27 25 25 25 25 25 26 27 28 30 30 30
23 23 22 21 20 18 18 18 18 18 19 20 19 17 14 12 13 13 12 13 14 16 20 27 28 17 10 15 15 12 13 12 12 12 14 18 20 18 13 10 9 10 11 12 17 16 13 12 11 14 17 21 24 25 33 34 26 34 47 56 54 42 34 25 20 22 21 21 19 24 34 34 37 34 27 28 26 24 25 24 25 25 25 26 27 30 30 29
23 22 21 20 18 18 18 18 18 18 18 17 15 14 12 12 13 13 13 13 14 17 17 17 20 15 12 13 12 10 10 9 9 11 12 12 17 18 13 11 12 14 14 14 15 16 19 11 5 13 16 17 23 31 47 46 42 50 48 56 57 39 35 33 26 25 24 26 22 23 39 39 33 33 29 27 26 25 25 24 25 25 25 26 26 28 30 29
22 20 19 17 16 17 17 18 18 17 17 17 15 14 12 12 14 14 14 13 12 14 14 13 11 11 14 13 10 10 10 9 9 11 12 10 14 15 11 12 15 16 16 16 14 15 20 14 11 19 20 24 32 47 64 55 57 69 48 41 43 35 46 44 29 30 30 34 32 25 35 38 29 31 30 27 27 25 25 25 24 25 25 25 26 28 29 30
22 18 15 14 14 15 15 17 17 16 17 17 16 15 13 13 13 13 12 13 15 13 12 12 10 11 14 12 10 11 12 12 10 9 11 10 11 12 12 15 16 17 17 15 13 12 13 14 16 19 25 37 39 51 66 51 53 72 63 56 48 42 54 47 30 32 33 34 35 29 32 33 28 31 31 27 28 26 25 25 23 25 25 25 26 28 30 31
19 15 14 14 15 15 14 15 14 14 14 13 13 11 11 12 11 11 11 13 14 13 13 11 12 16 14 12 14 14 13 12 10 10 11 9 10 12 14 16 17 15 14 11 10 11 12 14 19 24 32 43 45 52 50 37 47 66 69 68 64 63 60 41 26 24 26 33 38 40 40 35 30 32 31 28 28 27 26 25 24 25 25 26 28 29 31 32
15 14 15 16 15 14 13 13 13 14 13 13 12 11 9 8 8 7 8 10 10 14 17 13 13 17 14 13 15 13 12 11 10 9 9 10 12 15 16 18 19 16 16 16 14 13 17 24 32 37 44 49 52 57 47 41 53 61 63 65 68 73 58 35 24 20 29 41 44 45 42 33 30 32 32 29 28 27 27 25 25 25 26 29 31 31 32 32
15 15 16 16 14 13 12 11 12 12 13 15 17 19 15 10 12 13 10 10 12 15 16 14 14 14 14 15 14 12 10 9 10 9 11 12 12 15 16 15 17 19 28 31 22 15 21 39 49 45 47 49 48 53 51 48 51 52 59 67 70 65 45 29 22 24 34 40 38 37 36 33 30 31 31 29 28 29 28 26 25 26 29 30 31 33 33 34
16 15 16 16 14 13 10 9 10 10 12 16 18 21 19 17 21 21 17 15 14 13 12 12 14 14 14 16 17 15 11 9 9 9 12 13 14 18 16 19 24 24 32 31 21 18 22 38 48 41 41 46 51 56 50 41 39 45 57 63 60 45 29 24 24 29 35 36 35 32 32 33 29 30 31 30 30 30 27 26 28 29 31 33 33 33 33 31
16 16 17 15 14 14 10 11 12 11 11 11 11 12 12 15 17 18 20 20 17 15 13 12 12 14 14 16 19 17 13 14 12 10 13 14 16 22 23 31 38 32 33 32 25 27 29 33 37 37 43 52 58 56 44 39 37 44 59 60 48 34 28 28 27 31 34 36 37 33 35 36 32 32 32 31 31 31 28 27 31 32 33 35 33 30 27 25
16 17 16 15 15 13 12 13 13 12 11 8 9 10 11 12 14 20 21 19 20 18 15 14 13 14 15 16 18 17 15 18 20 18 17 16 18 24 28 38 49 47 42 35 26 24 24 26 29 34 48 55 55 54 48 43 40 43 50 46 39 34 32 32 29 31 35 40 41 38 40 41 39 39 35 33 35 34 33 30 32 33 33 32 29 27 25 24
17 17 16 15 14 12 14 13 12 13 11 10 11 11 15 18 18 22 21 19 23 20 17 16 14 15 16 15 18 20 19 19 22 22 19 18 21 26 31 39 52 57 54 46 37 33 27 25 29 36 47 46 44 53 54 43 40 48 46 35 34 35 34 35 36 38 39 43 46 41 42 44 43 44 41 37 38 37 35 33 34 32 29 29 27 26 26 25
16 17 16 16 15 14 15 13 13 13 12 12 13 12 15 17 16 18 22 27 25 18 20 19 13 16 16 14 17 18 18 17 19 24 22 18 20 30 33 33 41 50 57 55 45 46 43 29 30 39 43 41 38 39 43 44 47 54 52 38 33 37 39 38 40 45 45 45 46 43 50 52 38 38 46 44 43 42 38 37 35 30 28 28 28 26 26 27
16 17 15 16 17 17 17 16 13 13 16 14 13 17 14 11 14 13 27 51 45 21 18 19 15 18 19 14 14 17 21 20 18 21 22 18 19 28 34 34 36 37 45 50 39 40 43 36 43 49 42 38 32 25 30 44 48 48 48 41 39 45 46 42 42 51 53 46 42 37 41 44 27 27 48 50 47 46 43 41 35 29 30 28 28 28 26 27
16 15 15 16 15 16 17 16 14 13 16 12 12 20 15 14 15 11 32 59 46 19 17 21 15 16 22 17 12 18 25 21 18 19 18 19 18 20 32 43 43 35 39 50 42 34 38 45 57 57 43 34 26 22 28 39 42 40 40 40 44 47 45 46 46 50 50 43 46 40 27 32 27 25 47 54 48 51 49 44 37 30 30 28 28 28 26 27
16 14 15 15 14 15 14 14 15 14 15 13 14 17 18 21 16 21 45 44 22 16 22 22 15 14 19 17 13 18 24 22 23 23 15 15 16 15 28 41 46 48 48 48 35 29 40 48 51 49 39 30 23 25 32 35 39 43 46 47 50 53 51 49 47 48 46 43 56 49 26 36 36 23 44 57 51 59 57 45 39 33 28 27 27 27 26 26
15 15 15 15 15 15 14 14 15 14 14 14 13 13 18 18 15 38 53 28 14 24 26 20 16 15 17 19 19 19 22 23 26 26 15 12 15 17 27 31 40 52 49 40 27 27 42 43 44 47 36 29 28 30 35 37 41 46 50 49 47 50 46 40 42 45 43 52 68 51 25 40 42 25 47 64 58 66 62 46 40 32 26 27 26 26 26 25
15 15 14 14 14 13 14 14 12 13 14 13 13 16 18 18 36 63 45 15 23 29 22 22 18 19 26 32 30 24 25 23 22 26 20 15 12 15 24 20 30 49 50 50 45 39 44 42 46 45 30 32 34 28 27 30 34 35 38 40 36 39 39 36 40 35 35 55 65 43 23 37 46 42 56 66 63 67 59 43 36 29 26 27 26 26 26 26
13 12 11 11 11 10 11 12 14 15 12 12 14 15 21 31 57 68 31 12 34 33 25 30 30 34 43 43 35 29 35 28 21 30 34 33 27 26 33 28 38 55 56 64 66 55 48 43 45 41 29 34 33 24 26 30 33 33 34 37 33 36 39 37 40 38 40 49 45 32 26 33 45 55 64 65 63 64 55 40 32 28 27 27 27 27 26 26
10 9 10 10 10 10 10 12 17 15 10 15 14 12 33 50 46 41 30 26 35 34 30 34 41 49 52 48 37 34 43 36 27 35 45 55 57 53 54 54 56 50 43 58 63 54 50 42 41 39 31 31 27 29 39 40 39 38 36 40 44 51 51 43 42 44 44 39 32 30 30 32 37 46 62 66 59 57 48 34 28 28 29 28 28 28 26 27
9 8 10 11 11 10 10 11 14 12 11 14 12 18 47 56 30 23 37 35 27 31 35 40 53 58 51 46 39 37 43 36 30 34 40 53 64 63 61 64 62 44 38 54 51 45 51 47 45 41 29 27 25 27 31 33 40 40 35 40 47 57 65 63 56 51 48 39 31 29 32 40 37 39 59 63 52 46 33 23 26 28 30 30 28 29 28 26
10 9 11 10 11 10 10 12 11 11 14 13 23 43 49 35 21 27 38 37 36 41 44 50 58 56 43 35 35 40 39 34 36 39 43 51 58 63 65 64 61 54 56 59 45 40 41 34 38 38 30 29 31 30 27 32 43 40 33 40 43 47 63 73 67 57 55 51 39 31 35 46 40 39 55 50 37 35 23 19 28 28 29 31 28 29 27 24
11 11 10 9 11 9 8 12 10 12 16 13 34 62 48 20 23 38 44 49 51 46 46 53 52 47 43 38 39 40 31 32 45 48 52 59 59 61 66 65 62 62 64 56 43 39 34 32 38 36 30 27 28 33 35 38 44 40 40 51 54 49 53 65 66 54 55 63 55 40 38 40 31 35 49 38 25 25 21 23 30 29 30 30 28 27 26 25
12 10 9 10 10 9 9 11 10 16 19 16 33 52 45 32 36 47 53 54 49 45 50 56 49 45 48 46 45 39 30 36 49 47 49 60 63 63 66 66 61 61 60 53 50 49 42 42 44 38 34 29 25 30 35 34 37 41 43 46 50 48 45 62 72 56 53 66 56 40 44 41 29 36 44 33 25 23 22 27 30 30 30 28 27 26 25 27
13 11 11 11 10 11 12 10 13 18 11 19 41 47 42 45 51 60 63 54 50 53 53 49 40 34 37 44 46 41 37 42 43 36 37 50 57 59 66 67 56 55 61 56 55 60 55 50 50 42 31 27 26 29 33 33 34 43 45 41 48 54 51 63 71 59 59 67 51 39 50 50 45 52 46 31 28 26 25 31 31 30 30 27 27 26 26 28
14 12 10 12 12 12 13 11 16 13 5 30 61 55 50 58 56 58 61 55 58 59 49 41 35 28 32 40 44 43 43 46 43 34 34 46 52 56 68 71 57 54 61 58 56 62 60 58 60 47 26 23 31 33 37 41 38 37 37 39 55 67 66 64 62 59 68 73 59 47 50 51 52 58 49 33 29 29 31 35 32 29 30 28 27 28 28 30
14 11 8 13 13 10 12 13 10 6 12 46 70 56 55 68 57 49 55 59 62 57 44 39 36 35 39 38 40 47 48 46 43 36 35 45 52 55 62 67 60 54 59 65 66 62 58 60 65 56 36 28 31 32 36 42 43 41 41 46 59 68 68 64 58 60 69 71 65 60 57 53 47 44 40 31 29 35 39 37 32 30 29 29 29 30 30 30
15 11 8 11 12 10 10 8 7 20 37 56 66 58 57 65 55 43 49 56 55 47 40 41 41 44 46 43 46 48 45 44 40 35 45 54 55 59 64 70 74 69 65 68 68 60 56 59 63 60 48 34 28 32 32 31 35 42 50 59 69 71 65 63 62 61 65 68 70 74 70 54 39 32 29 28 32 39 39 33 31 30 29 30 30 29 30 30
12 13 10 7 11 10 6 9 20 43 63 65 65 64 58 57 53 45 45 50 48 41 39 44 48 48 47 49 54 46 38 46 44 38 49 56 54 60 67 76 87 85 75 68 64 60 57 60 63 63 53 34 26 31 31 29 30 32 40 53 72 84 76 70 71 59 57 68 72 83 85 61 38 29 24 27 36 38 33 30 31 30 30 31 29 29 30 30
9 16 13 6 11 7 7 29 43 52 69 68 58 56 53 49 47 43 43 45 44 42 40 41 48 53 49 47 53 50 40 45 47 43 50 60 63 63 63 69 80 87 84 71 62 63 63 66 71 71 58 38 31 36 37 40 40 34 38 47 64 80 73 68 72 64 67 76 68 74 82 61 37 27 22 29 37 34 30 29 30 32 31 30 29 30 31 31
10 15 10 6 11 5 10 41 55 56 64 59 48 48 50 47 44 44 47 44 43 44 41 42 44 45 46 45 52 53 40 38 45 44 52 70 73 64 61 64 67 72 72 61 57 65 66 61 59 57 47 33 33 40 41 47 45 33 36 49 61 70 71 71 74 74 87 87 68 70 77 56 34 24 23 32 36 32 30 30 31 33 31 30 31 32 33 34
8 10 8 9 10 6 18 44 57 62 59 48 46 48 45 41 44 55 58 49 47 48 45 47 42 38 44 48 52 53 37 30 38 39 48 71 73 58 56 65 67 59 49 43 48 60 61 54 52 53 45 34 32 34 35 42 40 27 28 47 63 69 72 73 72 79 89 73 56 72 77 51 30 24 26 33 34 31 30 30 32 32 32 32 32 34 36 38
9 8 5 6 5 7 23 35 45 62 64 54 51 48 44 40 38 49 54 41 39 45 44 43 38 37 47 48 50 55 40 26 33 42 52 68 76 68 58 59 65 58 49 50 56 67 77 70 55 49 47 46 47 42 38 38 36 34 34 42 59 71 71 67 68 81 85 64 55 71 69 46 30 27 32 37 35 33 31 30 32 32 33 33 33 36 40 41
14 18 16 13 6 8 19 18 22 44 59 59 51 40 44 46 34 38 47 37 33 38 40 41 39 40 47 49 53 55 44 35 40 50 58 66 74 73 59 53 55 51 54 60 61 74 90 78 53 41 40 45 47 39 33 37 44 51 48 42 60 83 80 72 73 74 69 66 65 59 51 49 42 34 39 41 36 33 31 31 33 33 34 35 34 38 42 43
17 27 31 25 14 18 29 25 22 31 38 45 44 34 39 47 40 39 42 35 31 34 38 44 46 45 45 51 57 54 51 48 45 48 54 62 69 66 57 58 56 51 56 59 55 61 67 61 53 49 43 42 44 37 36 47 50 47 45 47 66 83 73 62 66 62 56 69 70 47 42 55 49 38 44 43 34 32 32 32 33 34 36 36 35 39 44 45
19 26 29 28 26 35 44 34 26 29 30 38 44 39 40 46 45 44 42 36 33 36 41 48 56 58 54 52 51 51 57 52 45 54 58 59 67 66 61 64 57 49 53 51 46 52 56 58 60 57 51 47 47 46 44 47 42 34 38 45 51 59 55 48 53 51 49 64 65 45 44 53 46 41 45 39 31 31 32 32 33 35 37 36 37 42 46 46
17 21 21 23 25 33 39 32 27 30 35 44 49 44 45 47 42 42 47 48 46 42 41 48 61 68 67 60 48 48 56 45 38 61 69 63 72 73 66 65 52 43 46 47 50 53 53 63 66 62 64 59 49 47 45 40 36 35 40 40 33 38 43 43 45 43 42 51 50 43 48 50 43 44 42 33 28 29 31 32 34 35 38 37 39 44 46 46
12 12 12 17 21 24 27 26 30 40 44 46 43 39 47 55 48 46 52 54 53 52 49 53 65 71 67 64 58 56 61 54 49 65 69 60 67 73 68 64 60 55 51 52 61 53 39 54 69 67 71 65 47 42 41 37 36 36 38 35 30 36 42 45 48 47 47 52 46 45 56 55 44 40 36 30 28 29 31 33 35 37 38 38 40 44 45 46
8 7 5 13 24 27 23 18 30 50 57 53 50 48 55 61 54 50 52 49 47 53 56 56 66 73 65 63 70 69 64 66 67 68 63 56 58 65 63 57 62 67 59 55 66 60 49 61 74 74 76 65 43 37 39 35 35 45 50 40 33 41 48 50 51 46 46 52 53 56 65 61 47 37 34 30 28 30 32 34 36 38 38 40 42 44 46 48
6 8 5 13 26 30 29 31 38 45 43 47 58 57 53 54 51 46 46 46 45 46 50 52 58 68 64 57 64 65 58 63 68 62 57 53 49 49 47 42 45 55 61 64 66 61 59 63 66 70 74 60 40 37 43 43 46 59 62 45 34 41 46 44 44 40 38 44 55 64 63 54 43 37 36 34 30 31 34 35 38 39 39 41 43 45 48 51
Wind_Speed
9 10 9 8 8 7 6 6 5 4 4 4 4 4 5 7 8 9 10 10 8 6 5 5 6 9 11 13 13 12 12 14 15 13 15 16 13 12 11 11 10 8 6 5 5 4 4 2 2 3 5 4 6 6 4 2 2 1 2 2 2 1 1 1 1 1 0 2 4 6 7 7 5 8 12 8 14 19 20 20 18 15 14 13 10 8 10 12
9 9 8 8 8 7 7 6 5 4 3 3 3 5 6 7 9 10 11 10 9 7 5 4 3 6 8 10 10 8 8 11 15 18 18 15 12 11 10 10 10 9 7 6 5 4 3 2 3 1 3 3 4 5 3 2 2 2 2 2 2 3 1 1 3 3 4 3 3 7 9 8 4 3 3 2 8 13 14 13 14 15 13 11 10 9 11 13
9 9 8 8 7 7 7 6 6 5 2 3 4 6 7 8 9 11 13 12 10 9 7 5 2 4 7 8 7 6 5 8 17 20 16 12 11 10 10 10 11 10 9 8 6 5 4 4 4 3 3 4 5 5 4 2 1 1 2 3 4 4 2 6 7 5 4 4 3 8 7 8 6 6 3 6 8 9 7 7 10 13 11 10 10 10 11 14
9 8 8 8 7 7 7 7 7 5 4 4 6 8 8 8 9 11 14 13 11 12 12 11 8 5 6 7 5 2 2 5 16 17 12 11 11 10 10 11 11 12 11 9 7 6 7 5 4 5 5 4 3 4 2 1 0 1 3 3 4 1 4 4 6 5 5 6 4 7 6 7 6 6 6 10 7 5 5 8 9 11 10 9 9 10 11 13
9 8 8 7 7 7 7 7 7 6 5 6 8 8 8 8 9 12 15 12 12 15 17 17 16 13 9 6 3 1 3 1 10 13 11 10 10 9 10 11 11 11 10 8 7 6 7 8 6 5 4 2 1 2 2 2 1 2 2 4 2 4 3 2 6 7 6 6 5 7 7 3 3 6 6 6 4 5 9 11 11 11 10 9 9 9 10 12
9 8 8 7 7 7 7 8 7 7 6 7 9 8 8 8 9 12 13 11 11 14 14 13 13 14 13 11 8 5 5 2 7 10 10 10 9 9 8 10 11 10 11 8 6 4 5 7 4 5 2 1 2 3 2 4 2 1 1 4 7 5 4 2 6 7 6 6 5 6 6 6 6 5 4 5 9 11 13 13 12 11 10 10 10 10 11 12
9 8 8 7 7 7 7 7 6 6 6 8 8 8 8 7 9 11 12 13 11 10 7 8 7 6 7 8 11 13 13 7 8 10 10 9 9 10 8 9 11 10 12 11 5 4 5 7 4 2 2 3 3 3 3 5 5 4 0 2 5 5 5 3 4 5 2 3 4 7 8 8 9 6 4 9 13 14 13 12 11 11 10 9 9 10 11 12
9 8 8 8 7 7 6 6 5 5 6 7 8 8 8 8 9 10 13 14 13 10 8 6 4 3 3 2 4 13 17 11 11 11 10 9 9 11 9 8 10 10 14 13 8 4 3 7 10 8 4 3 3 3 5 7 6 5 0 1 3 3 3 3 3 2 3 4 6 7 6 7 10 8 8 12 14 13 11 10 11 11 10 9 9 9 10 11
9 8 8 7 7 6 5 4 4 5 6 7 8 7 8 8 9 10 13 13 13 13 13 12 7 2 4 4 4 9 14 12 12 12 11 10 9 11 11 7 8 10 14 15 10 4 4 6 8 8 3 2 5 4 5 5 3 2 1 1 2 4 5 5 4 6 5 6 8 6 5 7 12 8 6 12 14 12 12 11 12 11 10 9 9 8 8 9
9 8 8 7 6 6 5 4 4 5 7 7 7 7 8 9 10 11 11 11 11 11 12 14 12 7 6 9 12 9 10 13 13 12 11 10 9 11 11 8 8 11 15 18 16 11 10 7 4 5 3 4 5 4 5 3 1 2 2 3 1 5 7 8 8 8 5 5 8 6 5 9 14 7 3 12 15 13 13 14 13 12 10 10 9 8 7 8
8 8 7 6 6 6 6 5 5 6 7 6 7 7 8 9 9 8 7 8 9 10 10 9 11 13 13 19 22 12 12 16 14 13 10 8 8 11 12 10 10 13 16 19 20 18 15 10 5 4 2 3 4 3 4 3 1 2 2 3 3 3 4 6 8 8 4 3 6 5 3 7 11 5 6 16 17 15 16 16 14 12 11 11 9 8 6 7
8 7 7 7 7 7 7 6 6 6 6 6 7 8 8 7 5 5 5 6 6 8 9 9 11 11 15 27 27 15 15 17 14 12 9 6 7 10 12 12 11 12 16 19 20 18 16 14 11 9 5 2 1 3 2 2 2 3 2 1 6 8 5 6 4 7 5 2 4 1 2 1 7 5 9 20 18 16 17 16 15 12 12 11 9 8 7 7
8 8 8 8 8 8 7 7 6 6 6 7 8 8 7 6 5 5 6 6 6 5 5 8 10 11 16 22 20 16 16 17 14 11 8 6 5 8 12 12 12 12 13 18 19 19 19 15 12 14 14 7 2 3 1 1 4 4 2 3 4 7 5 9 6 1 2 2 2 1 3 6 7 6 13 20 19 18 17 17 16 14 13 11 10 9 8 7
9 9 9 9 9 9 8 8 8 7 7 8 9 9 8 8 9 8 7 7 7 6 5 5 5 10 18 17 15 17 16 16 16 14 13 10 6 8 10 10 13 13 12 14 14 16 18 17 17 17 17 12 2 1 2 2 5 4 4 3 4 4 5 13 11 4 3 2 2 1 3 8 6 8 17 19 19 19 18 18 17 15 14 11 10 9 9 8
10 10 9 9 10 10 10 9 9 9 10 10 10 10 10 12 12 10 9 8 7 7 8 9 6 8 14 13 14 17 17 19 19 19 17 13 9 7 8 9 12 12 13 15 13 10 11 16 23 20 17 18 8 2 4 4 4 5 5 4 4 3 4 13 12 4 2 4 6 3 4 7 5 10 20 19 18 19 17 18 17 16 14 12 11 10 10 9
10 10 11 13 15 16 16 15 13 12 11 10 9 8 8 8 7 8 8 8 7 6 7 11 10 11 10 7 11 17 21 23 23 19 15 13 10 8 8 9 10 10 10 14 13 7 8 13 20 21 21 21 11 3 4 5 5 4 4 3 5 4 4 7 9 4 1 4 7 4 4 7 6 8 19 18 18 19 16 17 17 15 14 13 11 10 10 9
10 12 16 19 19 19 18 18 17 16 14 11 10 8 5 2 5 5 6 8 9 9 11 10 7 11 12 8 10 17 22 23 24 18 11 11 9 7 9 9 10 11 8 9 11 10 12 12 10 11 16 13 6 4 6 5 6 4 3 2 4 4 4 5 7 6 5 7 8 6 4 9 9 5 17 18 19 19 16 17 18 15 13 12 10 9 8 8
13 17 18 17 15 15 15 16 18 19 18 17 16 16 14 11 7 4 7 7 8 10 13 12 6 5 10 14 14 14 17 20 24 16 7 6 7 7 9 10 10 10 9 10 13 13 12 11 6 3 7 8 6 8 6 1 3 5 4 3 4 4 4 5 8 8 9 9 8 8 7 10 10 3 14 18 20 20 18 16 17 15 13 11 10 10 9 9
16 17 14 13 12 12 12 11 12 14 15 16 17 18 19 22 21 18 16 13 11 10 6 12 13 4 1 14 18 13 12 18 22 16 8 5 5 8 9 7 6 7 10 9 11 14 10 7 7 4 5 6 5 4 4 4 5 7 6 4 4 5 5 6 9 10 10 8 7 8 9 10 11 6 10 18 22 20 15 12 15 15 13 12 11 10 9 10
16 14 11 12 11 11 9 8 8 6 6 6 7 8 8 12 16 18 24 27 23 17 10 12 15 8 2 11 19 16 12 17 24 22 15 9 4 7 13 10 8 10 8 5 4 10 11 7 6 3 4 6 6 2 1 3 4 5 5 3 4 5 5 7 11 11 8 6 7 9 10 11 12 11 9 18 21 15 9 10 14 14 14 13 11 10 9 10
14 10 10 10 10 10 11 11 12 10 7 5 5 6 5 5 7 8 16 23 20 18 18 18 17 15 10 10 16 17 14 18 26 26 20 13 6 6 13 13 10 9 6 4 6 6 10 9 4 4 6 5 5 3 3 4 5 6 3 1 4 5 7 10 10 8 8 6 10 12 11 10 10 12 9 14 12 5 8 11 14 17 16 13 12 13 14 15
11 9 8 8 8 8 9 9 11 12 11 12 14 16 15 14 14 13 13 14 13 14 16 20 21 21 17 12 12 15 19 20 24 29 25 18 13 9 11 12 8 5 6 4 5 5 8 6 5 7 7 4 5 4 7 8 6 6 4 3 3 4 8 11 7 3 6 5 10 14 10 8 10 10 2 7 8 10 13 15 17 18 16 15 15 18 20 22
10 8 7 7 7 7 6 6 7 8 7 10 13 15 16 15 13 12 11 9 9 12 14 17 22 23 20 16 11 13 21 19 17 27 29 22 17 12 10 9 6 4 6 6 6 5 5 2 7 9 7 3 5 6 8 8 6 4 3 3 4 6 5 8 9 8 8 5 8 12 10 6 7 5 8 12 17 19 19 19 17 16 17 18 19 20 22 26
9 8 7 6 6 5 5 6 6 5 3 3 4 6 10 12 9 7 6 6 5 9 12 12 17 22 21 19 14 10 15 17 17 24 28 26 19 10 6 6 5 5 5 5 9 7 3 3 7 9 8 6 4 6 7 6 5 4 1 1 5 9 7 8 11 12 11 6 4 6 8 5 3 4 5 8 16 18 18 19 18 19 20 21 20 20 24 27
7 7 7 6 5 3 4 5 5 5 4 2 0 3 7 7 5 3 3 4 3 6 10 8 12 18 20 22 15 4 7 16 21 23 24 25 19 7 5 6 5 5 5 4 8 6 1 4 8 8 7 7 5 4 4 4 4 6 3 3 7 10 11 14 13 10 8 6 2 5 5 5 3 3 4 4 8 9 12 17 18 19 21 22 20 21 26 27
5 5 6 5 4 3 3 4 6 6 5 4 2 2 7 6 2 1 1 4 3 6 8 8 9 14 18 23 18 3 3 11 17 22 24 21 17 8 5 6 5 3 2 2 4 2 1 6 8 6 4 6 7 5 3 3 4 4 5 6 8 9 11 16 13 7 3 6 4 6 4 5 4 3 4 5 7 7 9 12 13 16 19 19 19 23 27 27
3 3 3 3 3 4 4 4 5 6 5 4 4 1 4 7 5 2 1 5 5 4 7 8 8 11 13 19 22 7 1 11 12 20 26 18 12 11 7 4 4 3 2 2 4 1 1 7 7 6 5 6 7 5 4 2 4 4 7 6 9 11 14 15 11 5 3 5 4 4 5 5 6 4 4 8 8 7 7 7 9 13 18 20 21 25 27 26
1 3 4 5 5 6 6 6 7 7 6 5 4 1 1 3 4 1 4 4 4 4 5 6 6 12 11 13 22 13 2 10 9 14 24 18 10 10 9 5 1 4 4 4 3 3 1 3 3 4 6 5 4 5 6 1 2 6 8 7 8 10 14 13 8 5 4 2 3 4 7 4 8 6 5 8 7 6 6 5 6 12 18 20 23 26 27 27
5 6 7 8 8 9 9 8 8 8 5 4 3 2 0 3 4 1 5 2 3 3 4 6 6 12 14 10 16 15 7 9 8 10 20 21 13 6 5 7 6 2 3 6 3 3 1 1 3 4 4 1 4 8 5 3 0 8 7 7 7 7 10 9 4 5 3 1 3 5 8 4 8 6 2 3 3 3 3 2 4 13 19 21 24 27 27 26
8 9 10 10 11 11 11 11 10 7 5 4 2 3 3 3 3 4 5 0 1 4 5 7 5 9 15 9 9 14 9 8 12 13 17 22 25 18 6 8 13 5 3 7 3 2 3 2 2 3 2 3 5 7 3 5 4 8 7 8 7 6 6 3 2 2 3 0 4 4 8 5 6 3 1 2 1 4 2 4 7 13 19 23 25 26 25 25
10 11 11 11 11 11 10 9 7 5 4 3 1 3 3 2 3 6 3 2 1 5 6 5 4 6 10 5 4 11 7 8 14 13 12 14 23 26 13 6 11 7 4 7 4 4 5 2 1 1 2 2 1 4 6 6 9 9 5 5 7 5 3 3 3 4 4 3 3 5 9 7 4 2 2 2 2 5 5 6 8 11 18 24 26 28 28 30
9 9 8 8 8 8 7 6 3 3 2 1 2 0 1 2 6 3 1 4 2 4 3 2 4 5 6 4 4 7 4 6 10 8 5 4 7 11 9 3 4 4 4 4 4 6 5 2 3 3 2 2 3 3 6 6 8 7 4 5 7 5 5 4 4 4 3 5 3 7 10 6 3 2 2 3 3 6 6 10 12 14 20 24 27 28 30 33
10 9 8 8 6 5 0 2 0 0 1 2 2 1 4 5 4 1 3 4 1 2 2 3 4 4 4 5 5 6 3 3 7 7 3 3 4 3 5 5 3 2 2 3 3 5 4 5 6 4 2 2 4 3 4 4 4 5 3 5 5 4 4 5 4 3 5 7 6 7 7 5 4 2 4 4 4 3 10 19 18 19 21 24 27 29 33 39
12 12 10 9 9 7 5 3 1 3 3 3 2 3 8 6 0 1 2 3 1 2 3 2 5 5 3 3 2 4 4 2 3 6 4 4 5 4 4 7 8 4 1 2 3 3 3 5 4 2 3 5 3 0 2 1 2 3 1 4 2 1 1 3 3 3 6 9 9 8 4 3 5 3 5 4 3 4 14 19 20 24 27 30 35 37 42 45
13 14 12 11 10 8 8 6 4 5 4 4 5 6 7 2 1 1 1 4 2 3 4 4 4 5 4 2 2 2 3 2 2 5 5 4 3 3 3 5 6 4 2 2 2 1 2 5 6 5 8 6 2 2 2 2 1 3 1 4 1 3 4 3 4 4 6 8 6 4 2 3 4 3 4 6 6 9 18 24 26 30 33 37 39 40 42 41
14 16 16 14 12 10 10 8 6 4 3 5 8 6 3 2 1 1 1 3 1 2 5 6 5 5 5 4 3 5 2 1 2 3 3 3 2 3 3 3 4 5 3 2 1 1 2 6 8 9 11 5 1 2 1 1 2 2 3 2 4 4 5 1 4 4 4 5 4 2 3 3 5 3 2 8 12 16 21 24 26 29 32 35 36 36 38 39
13 18 19 16 14 11 8 8 6 2 4 9 9 3 2 1 1 2 2 2 2 2 2 4 3 2 4 3 3 7 5 2 3 3 2 1 2 3 3 3 4 5 4 2 1 1 1 5 8 4 6 5 1 2 2 1 1 3 2 4 3 1 4 3 2 4 4 5 4 3 6 7 6 4 4 13 16 15 15 16 22 28 31 32 33 36 39 40
11 17 20 18 15 10 7 8 5 7 12 13 7 3 2 1 1 2 3 2 2 1 4 3 1 1 2 2 3 6 5 4 3 3 3 1 2 3 2 3 3 5 9 5 1 1 1 4 7 3 3 8 4 2 3 3 2 3 1 2 2 1 2 1 2 4 6 8 6 7 9 6 4 3 6 12 13 13 15 16 18 23 27 30 34 37 41 40
8 12 17 17 13 11 8 5 6 12 15 10 3 2 2 1 1 2 3 2 1 2 4 1 1 1 1 1 2 4 4 3 3 3 2 1 2 3 4 2 3 8 13 5 1 2 1 0 6 4 6 8 5 3 3 5 3 2 3 3 2 2 2 1 2 2 5 8 8 9 10 4 1 2 6 11 12 14 16 15 14 21 28 32 35 38 40 41
5 6 11 13 11 10 6 6 10 15 11 4 3 3 1 2 0 3 4 2 0 2 2 1 1 2 2 2 1 2 2 2 3 2 2 1 2 1 3 3 3 9 12 4 2 3 2 0 4 5 6 6 3 2 2 3 3 4 5 4 2 1 0 1 2 2 1 6 7 8 9 5 2 3 6 13 14 13 15 15 15 23 31 33 36 39 40 41
7 5 7 10 9 6 5 10 13 13 6 2 3 2 1 2 1 3 6 4 3 3 2 2 1 1 1 2 2 2 2 3 2 2 1 2 2 1 3 4 3 7 8 4 2 2 1 0 3 5 5 4 5 5 3 3 1 3 5 3 2 1 1 2 5 2 2 3 6 7 10 8 1 2 8 13 12 12 17 20 20 26 32 34 38 41 40 41
10 5 5 9 7 2 7 11 10 6 4 4 3 3 3 3 2 3 5 4 3 3 3 2 1 1 0 1 2 2 2 2 2 2 1 1 1 1 2 5 6 5 2 2 2 1 0 1 2 4 4 6 9 6 1 1 1 1 1 2 2 2 2 2 7 4 0 3 6 5 9 7 1 4 13 13 11 15 22 24 25 28 32 34 39 41 41 42
14 9 5 7 5 4 9 9 6 5 5 3 3 5 4 3 2 3 4 4 3 2 3 2 0 1 0 1 1 2 1 1 1 1 1 1 1 2 2 5 7 3 1 1 3 2 1 0 2 5 4 6 7 4 3 2 3 2 1 0 1 1 2 4 5 2 1 3 4 6 10 7 1 10 18 16 15 20 24 26 28 28 30 35 40 41 42 43
18 17 15 9 3 4 7 4 2 3 2 2 4 5 5 4 4 2 2 4 3 1 2 1 0 2 1 1 1 1 1 1 1 1 2 2 1 2 1 4 5 3 2 1 2 4 2 1 2 5 6 7 7 6 5 4 3 3 4 2 1 3 2 3 3 2 0 3 2 6 12 10 4 12 17 13 14 19 24 29 29 28 30 36 40 41 42 41
12 14 19 18 12 10 9 7 9 6 2 3 5 3 3 4 4 3 2 2 3 2 1 1 2 2 2 1 1 2 1 1 1 2 3 1 1 2 1 2 2 2 2 1 1 2 1 1 1 3 4 7 8 7 8 8 6 5 5 7 4 4 2 2 2 2 2 4 4 5 11 14 12 15 15 11 12 17 23 28 28 26 30 36 39 41 42 39
4 4 8 15 19 20 17 13 13 8 4 4 4 3 3 2 1 2 2 2 4 3 1 2 2 2 2 4 3 3 2 1 0 2 2 0 2 2 1 1 2 2 2 3 4 1 1 1 1 4 2 5 7 9 10 10 9 8 11 12 6 1 1 2 1 4 6 7 7 7 11 17 18 17 12 11 15 17 20 26 27 26 30 36 39 40 40 38
5 2 2 5 10 15 16 12 11 7 4 5 3 1 2 1 1 2 2 1 3 3 1 3 3 2 2 4 3 2 4 3 2 2 1 1 2 2 1 1 2 3 2 3 5 2 3 3 2 2 5 8 9 12 13 10 9 11 13 10 3 2 4 4 2 6 6 7 11 14 17 21 22 18 12 12 15 15 18 25 27 27 31 36 40 39 38 38
5 3 4 4 3 4 6 7 9 10 7 5 3 1 2 2 2 1 1 2 3 2 2 3 5 4 1 2 1 1 4 5 2 1 0 1 1 2 2 2 1 2 2 3 4 2 4 1 3 2 6 11 10 11 12 9 9 12 9 3 2 2 3 2 3 6 6 6 13 20 23 23 22 17 12 13 17 19 23 28 30 31 33 37 40 37 35 37
11 8 6 7 6 5 6 5 8 13 9 5 4 2 2 3 2 1 1 2 2 3 3 1 4 6 3 1 2 1 2 3 2 2 1 1 1 0 1 2 1 0 2 3 3 2 3 3 4 2 7 11 10 10 10 9 12 13 5 1 2 2 3 3 5 6 6 10 15 20 24 22 17 12 11 17 25 28 29 31 32 33 35 38 39 36 35 39
9 8 9 15 13 9 7 5 5 8 7 5 4 1 1 3 1 1 2 3 1 4 4 2 4 7 3 1 3 2 3 3 4 5 2 1 1 1 2 1 1 1 3 3 2 2 2 3 4 1 4 8 9 9 9 11 15 12 4 1 3 4 4 6 7 7 8 13 18 20 21 18 11 12 17 26 32 31 29 29 31 33 37 39 36 34 37 43
11 12 15 17 10 5 5 4 4 5 4 5 2 0 1 2 2 2 2 3 2 1 2 1 4 6 2 3 4 2 4 3 4 4 2 1 2 3 2 2 2 0 2 2 2 2 3 3 3 4 3 6 6 8 12 16 15 9 3 3 5 5 4 4 5 8 10 16 20 19 15 11 10 16 24 30 32 29 27 28 29 32 38 37 32 32 39 45
14 14 12 12 6 5 5 4 4 5 2 2 0 1 0 1 2 2 2 1 3 4 2 2 4 4 2 4 4 3 3 2 2 0 1 1 2 4 3 3 4 3 1 1 0 1 2 2 3 3 3 7 9 11 13 13 10 6 2 1 2 5 6 5 6 10 13 13 14 13 11 10 14 20 23 25 27 26 26 27 29 34 37 33 31 36 42 43
Wind_Direction
94 94 92 89 82 76 70 60 48 39 47 67 74 80 78 62 45 36 29 24 21 23 39 62 93 109 109 108 102 86 64 29 17 35 37 28 23 18 14 9 9 6 351 334 323 290 234 283 348 238 254 263 253 247 243 272 254 353 62 106 324 195 174 249 200 346 86 322 356 43 53 101 96 89 116 91 74 85 81 77 79 78 76 72 63 46 38 46
98 95 91 85 79 72 63 50 39 30 46 95 95 92 82 63 46 39 32 21 16 24 37 52 94 126 125 120 115 99 76 28 26 43 37 28 29 26 26 23 23 23 14 8 3 335 268 297 3 239 248 282 243 212 191 217 184 167 113 106 252 201 191 34 85 38 35 347 18 64 61 78 40 13 118 68 67 82 79 76 82 80 74 73 63 51 51 54
101 96 89 83 77 68 57 42 34 26 51 110 105 96 84 63 51 47 38 29 33 46 45 43 64 154 147 138 129 113 101 29 29 38 35 37 40 35 44 45 37 32 27 21 15 11 6 14 10 337 310 296 234 195 162 159 186 238 110 91 248 203 82 47 63 46 38 354 31 87 71 64 41 357 57 113 89 69 75 84 88 86 80 78 68 60 59 58
101 95 89 83 75 64 52 41 34 29 52 95 102 97 83 64 59 52 41 38 53 61 60 62 67 106 143 151 141 136 190 19 22 25 33 43 43 45 57 55 43 32 24 14 4 357 349 357 352 311 293 283 218 170 119 119 299 352 107 152 248 142 75 53 56 38 34 8 29 108 90 63 64 38 87 134 103 63 115 111 108 107 101 97 86 73 68 66
98 95 89 82 72 62 52 43 37 41 65 95 103 96 79 67 63 50 39 44 72 78 74 72 73 84 99 115 114 292 232 327 9 18 35 40 39 44 56 55 43 27 19 7 351 344 325 325 316 294 271 269 356 87 39 11 107 40 82 132 51 50 101 71 46 38 34 25 42 105 104 102 121 55 75 146 149 159 152 136 133 130 126 120 109 93 81 74
99 94 86 78 68 59 50 45 45 60 86 102 103 91 75 74 63 47 41 54 91 98 78 67 74 81 83 80 74 69 107 104 360 17 32 32 35 36 51 54 41 24 13 360 341 358 347 339 301 270 288 57 56 99 19 353 76 81 349 76 52 59 113 65 42 50 39 43 64 119 135 140 133 84 73 125 140 153 154 152 148 138 137 129 118 107 91 79
98 90 83 75 64 55 47 46 53 76 100 104 100 85 74 77 61 50 55 67 92 111 80 56 74 91 90 75 65 68 78 68 19 25 26 27 30 28 48 51 37 22 5 359 356 11 2 16 27 341 31 65 57 84 13 360 57 93 273 31 57 75 103 92 58 66 61 76 113 153 164 160 146 136 137 130 136 149 150 153 148 137 135 126 115 105 93 85
94 88 79 69 59 52 46 45 55 82 105 102 93 79 73 76 69 67 72 77 86 93 78 56 69 128 128 108 60 53 48 32 22 27 21 26 30 27 40 45 38 19 1 6 13 15 19 35 36 28 47 58 39 52 20 17 40 69 103 319 110 109 124 138 99 140 175 151 156 155 157 178 172 160 152 149 149 152 153 154 149 141 136 126 114 104 98 91
91 83 72 63 54 48 42 42 57 86 103 97 85 77 75 78 82 83 76 78 84 84 75 58 47 91 114 115 101 50 27 15 19 21 17 23 34 31 26 30 44 25 11 20 24 28 51 42 40 39 39 27 48 47 21 39 30 3 351 354 156 170 179 179 183 196 188 167 171 157 135 161 163 151 151 166 167 161 159 162 158 151 144 132 122 113 105 94
87 77 65 56 47 44 41 46 70 94 101 93 84 80 81 89 96 92 77 72 76 76 69 56 48 68 110 99 82 58 14 18 23 19 19 18 34 38 27 30 47 33 27 37 43 49 49 34 25 49 49 31 46 25 20 84 186 315 356 15 112 180 188 195 197 200 186 173 190 185 170 169 164 161 190 175 171 168 165 167 168 161 152 143 136 125 111 98
83 71 58 50 46 45 46 58 85 101 105 95 88 87 91 99 97 84 65 62 71 71 67 59 53 65 85 76 67 49 15 23 20 17 23 22 38 42 36 46 52 44 44 48 50 49 51 45 29 56 63 11 20 23 49 95 234 311 5 12 331 303 245 216 197 200 184 171 222 216 174 167 175 210 212 178 173 175 172 173 176 169 158 153 146 135 119 103
76 63 55 53 51 51 56 69 89 103 105 91 90 93 93 97 83 63 56 65 85 83 70 60 52 55 67 62 54 36 25 29 19 15 20 19 40 43 41 51 50 49 52 51 52 48 49 47 39 47 37 347 32 43 64 77 1 335 34 40 320 343 319 274 218 194 185 196 252 239 40 183 210 245 184 173 174 177 178 179 181 174 165 163 156 144 126 107
66 59 57 57 54 58 65 75 90 100 97 92 95 94 90 82 68 72 70 69 90 105 84 59 52 51 63 61 45 31 32 31 26 27 29 14 26 43 44 53 55 54 55 54 58 54 49 48 50 52 39 35 107 57 72 81 27 336 11 79 341 4 345 311 321 181 165 234 258 58 340 283 240 205 167 170 175 179 184 182 182 179 171 170 162 147 131 115
62 63 63 64 65 66 71 81 92 95 93 95 98 96 93 80 76 83 78 71 84 98 90 73 64 53 63 67 41 31 32 27 25 28 30 22 14 37 45 58 61 57 53 50 51 50 47 47 56 56 37 28 17 7 27 34 35 356 350 45 24 26 328 319 329 353 23 306 276 83 284 281 259 187 172 174 178 182 189 187 185 182 173 168 161 145 132 120
69 72 71 74 76 76 80 89 96 98 98 96 98 103 103 92 79 69 67 73 87 98 89 83 92 69 64 64 40 32 31 26 21 16 17 18 18 38 51 61 61 57 51 34 17 21 30 37 51 50 29 28 35 9 16 14 19 27 19 346 353 28 318 317 327 350 36 306 299 308 273 277 276 193 181 180 183 188 197 194 186 181 176 169 161 143 129 113
77 78 86 92 90 88 85 88 95 99 99 96 99 104 108 101 61 42 67 86 91 99 99 85 75 68 63 45 34 32 28 23 16 12 8 10 22 39 43 49 50 43 40 24 10 22 34 35 50 46 34 33 34 31 46 30 352 12 46 325 316 352 330 317 321 322 28 324 303 290 268 282 296 190 182 184 187 195 204 196 183 178 175 165 155 140 126 104
85 94 100 97 89 84 80 82 90 94 97 96 95 91 91 60 340 6 94 105 99 92 88 87 74 66 58 32 20 18 18 17 12 11 2 4 28 42 28 31 28 14 13 20 26 60 64 45 48 43 39 37 15 42 61 22 333 327 23 348 293 321 325 315 311 313 353 346 310 291 261 276 295 188 180 188 191 202 209 194 180 171 161 151 138 121 103 78
100 109 103 90 81 78 80 86 90 95 99 100 98 91 81 69 51 76 119 123 108 88 71 55 44 78 48 19 10 3 9 15 12 13 8 11 41 35 10 8 12 21 48 51 33 50 63 45 49 53 33 29 15 52 70 346 279 277 310 314 298 318 308 299 305 315 337 332 308 304 288 282 299 196 182 196 197 206 214 194 172 160 146 135 117 94 69 53
114 115 97 81 81 82 86 91 95 97 95 97 99 93 84 78 78 81 88 90 79 77 61 31 35 100 23 6 15 14 15 21 18 21 26 20 35 25 17 7 2 33 62 62 22 31 55 41 44 45 358 356 358 63 118 209 233 258 268 246 275 303 286 282 292 306 331 328 297 291 286 289 301 273 202 203 203 209 215 184 155 147 133 120 99 78 59 43
123 115 86 79 83 77 77 77 79 87 90 102 99 94 91 78 73 67 69 73 71 74 75 48 43 58 29 7 19 23 27 30 27 28 25 11 360 27 40 48 52 45 46 90 41 27 58 64 43 23 306 301 309 323 160 240 267 289 278 247 280 292 288 293 294 306 345 343 288 281 286 289 290 283 236 204 204 205 189 147 134 129 115 98 81 68 55 38
123 106 77 77 79 75 80 73 61 57 72 115 110 99 105 84 88 83 73 73 72 70 63 53 47 42 35 20 19 20 23 28 29 31 29 22 32 40 38 46 58 42 13 96 90 33 58 64 8 305 277 291 314 316 27 11 358 351 330 311 328 307 296 293 286 309 3 357 296 289 295 296 286 284 251 193 190 169 137 127 109 102 88 73 68 58 43 31
114 93 70 72 79 80 84 76 61 56 70 97 99 95 95 93 100 102 94 86 70 60 49 43 43 38 35 32 25 21 23 23 21 24 25 30 50 52 41 48 61 37 356 40 67 29 50 46 316 305 300 333 10 26 40 24 16 10 8 40 352 311 307 295 271 316 7 345 296 297 303 299 291 294 301 123 99 80 104 106 91 83 68 60 58 42 30 21
101 84 71 71 80 81 79 70 62 61 77 99 95 92 97 96 96 93 92 97 74 48 34 33 33 28 28 25 17 27 37 33 11 11 15 22 38 43 43 49 57 44 15 38 74 66 60 348 306 330 347 25 19 22 41 22 12 18 13 32 319 306 326 301 297 329 332 268 265 298 308 295 304 358 52 75 89 88 91 92 83 74 66 55 41 29 25 18
92 80 70 67 74 75 68 52 47 56 72 111 102 102 111 103 99 97 82 94 87 36 26 28 25 22 20 14 10 29 47 42 19 9 12 14 20 30 37 31 45 46 21 58 85 90 117 287 330 4 25 59 39 17 47 39 360 338 321 46 307 307 307 282 297 324 321 281 246 316 324 304 334 61 72 76 92 92 90 90 79 67 55 34 26 26 21 16
88 77 66 62 70 65 55 38 35 39 25 35 215 195 151 126 104 95 69 83 68 3 11 16 17 17 13 10 13 48 63 40 27 14 9 14 15 19 24 18 39 33 360 56 81 84 100 339 13 28 22 36 45 24 44 63 5 330 269 249 291 304 301 291 304 334 334 311 348 41 356 299 333 79 136 97 84 87 89 86 72 56 37 21 27 30 17 11
84 74 60 57 55 33 12 3 17 14 2 21 1 230 193 202 228 352 48 71 16 332 354 3 6 9 9 11 11 57 94 24 25 22 14 13 16 28 19 6 40 38 337 51 72 94 15 9 33 52 25 21 31 21 9 73 51 333 263 267 298 306 302 298 309 337 325 290 314 56 29 295 325 45 120 114 93 88 79 73 63 45 31 29 33 23 10 4
75 51 32 24 16 7 344 332 351 350 346 5 360 302 209 226 237 271 32 50 5 327 354 355 359 7 12 17 20 60 152 337 4 26 19 11 18 46 45 359 32 15 288 82 32 298 332 11 21 36 30 24 22 357 317 73 79 294 274 301 315 308 300 296 307 310 257 288 318 52 37 318 310 357 83 103 101 93 71 60 48 35 35 36 26 11 1 356
338 329 329 329 324 319 311 311 319 327 337 346 351 18 197 205 203 194 91 71 344 331 356 350 5 16 20 28 34 62 95 348 4 14 16 22 27 49 55 37 15 306 311 92 46 306 336 22 13 47 34 23 9 308 284 101 98 267 276 302 302 294 290 290 302 290 267 318 317 352 24 339 302 330 62 98 105 95 73 56 32 35 38 28 12 1 355 353
308 308 309 308 306 303 295 299 308 312 321 335 360 14 173 158 178 97 80 106 322 343 348 354 359 1 8 26 35 42 42 26 24 1 18 35 34 46 80 28 18 319 359 74 105 282 310 187 190 118 68 7 275 285 278 119 295 283 293 310 298 279 281 284 277 275 308 108 248 333 26 358 299 316 27 65 80 97 91 76 30 34 29 14 4 357 353 352
308 302 302 297 292 293 287 292 301 297 303 322 14 55 87 114 127 65 44 344 336 351 335 2 356 342 0 16 17 15 21 22 14 12 24 36 38 43 71 13 14 40 29 35 76 250 275 237 214 128 118 231 253 292 331 85 7 334 340 329 313 285 279 294 255 284 13 265 237 356 21 340 302 314 329 330 124 151 122 37 19 22 16 4 358 353 350 349
309 301 299 298 291 289 284 291 296 279 302 320 131 81 78 54 66 85 60 285 332 349 341 358 349 348 9 27 360 355 1 1 6 21 23 25 34 35 39 8 3 25 19 3 358 323 337 353 282 229 228 272 307 331 347 24 21 13 1 332 331 319 323 360 356 19 22 299 280 1 354 321 283 275 255 248 149 142 116 51 19 14 6 356 352 351 349 346
330 323 318 317 308 299 279 273 286 262 299 33 153 133 92 37 34 77 288 313 333 351 352 312 322 348 358 18 11 341 339 353 1 27 40 36 43 33 45 57 346 9 5 342 338 340 339 292 301 296 271 333 37 3 337 357 21 17 355 360 0 347 352 352 341 360 327 285 313 351 338 311 260 253 200 202 188 162 104 46 26 11 360 352 351 349 346 343
6 2 3 6 12 13 7 198 277 205 149 101 140 5 76 77 40 307 297 338 331 312 319 263 301 327 343 18 4 331 347 355 355 13 32 74 67 35 48 37 15 36 341 322 352 351 328 305 330 347 323 360 44 27 331 329 5 359 5 38 18 345 346 320 304 322 288 281 309 336 327 295 297 306 178 186 193 152 35 23 15 6 358 352 350 348 346 345
27 28 28 29 34 39 61 96 87 89 100 102 114 53 62 75 60 331 330 308 271 316 321 281 314 338 21 52 335 333 12 327 356 25 10 39 43 8 6 4 8 39 43 354 5 13 1 320 318 6 328 335 13 105 214 224 347 314 134 94 53 274 238 257 262 292 292 294 309 323 312 263 310 318 148 112 73 35 13 8 4 3 360 354 352 350 347 344
40 43 47 43 40 45 56 71 98 96 103 113 83 60 70 102 245 46 328 275 294 324 310 319 360 18 15 355 307 18 52 301 2 55 27 35 53 360 351 343 350 16 54 28 333 18 31 280 263 316 314 299 298 240 177 106 354 279 121 79 7 223 192 225 239 241 275 292 297 303 248 218 305 330 110 72 28 6 4 5 5 2 359 356 352 347 343 339
48 50 53 49 47 51 54 65 88 95 138 118 74 55 97 160 233 139 264 280 306 307 316 346 28 39 348 321 339 360 28 280 341 52 40 55 81 10 349 307 340 19 61 74 302 9 28 278 283 327 323 298 199 253 229 77 320 331 37 337 264 190 148 167 277 269 289 295 286 294 283 296 326 326 48 16 360 359 1 5 5 360 357 354 347 340 338 338
53 54 53 49 48 47 53 65 72 108 124 96 78 78 161 150 213 200 283 310 273 286 19 22 19 29 343 322 325 333 346 347 344 27 38 55 57 15 350 321 355 32 29 23 277 181 156 287 292 312 331 329 294 260 303 12 54 57 9 278 255 106 101 113 283 298 307 292 280 296 301 314 321 301 3 4 355 350 354 4 4 357 353 347 339 338 339 338
62 57 49 44 44 44 63 78 92 127 103 81 76 95 109 93 255 247 303 325 277 347 61 66 316 62 20 340 301 315 348 6 348 14 34 27 18 39 38 327 338 19 3 359 341 277 135 309 292 251 336 333 335 22 341 334 60 82 340 287 107 42 325 10 320 301 300 294 292 302 305 304 291 302 360 354 342 346 356 5 1 351 346 341 339 340 339 337
67 59 44 37 41 42 51 88 125 114 90 73 86 103 96 162 298 338 345 335 281 62 68 66 302 12 22 24 288 309 348 5 333 360 43 35 353 47 67 349 299 346 354 10 144 307 39 316 285 287 344 338 344 22 337 310 333 25 8 6 65 144 212 260 300 278 290 292 296 309 308 299 292 354 359 346 348 1 0 359 354 344 342 341 341 340 337 335
73 70 41 31 42 44 50 113 101 83 75 81 134 122 126 166 334 17 29 18 53 77 69 257 359 12 334 351 336 315 343 337 322 2 60 35 2 37 46 29 304 329 346 23 106 337 353 181 271 296 343 355 342 308 262 269 311 355 359 344 335 336 238 274 261 185 248 288 300 310 302 303 42 44 2 357 5 9 355 349 347 342 342 342 340 338 335 334
79 79 39 34 48 54 88 95 70 59 65 89 94 87 98 126 129 35 40 49 70 67 89 157 111 74 332 342 324 317 339 326 337 50 53 15 42 36 5 18 338 324 347 25 34 349 348 257 259 292 333 340 290 263 225 213 224 356 330 276 198 137 80 319 290 238 145 280 295 300 298 304 14 49 6 10 14 4 353 347 344 343 343 341 338 335 333 334
76 73 23 31 35 71 104 74 39 36 78 75 72 83 91 115 110 36 30 41 51 34 45 104 104 52 71 288 296 339 358 328 347 32 54 62 65 229 315 356 335 310 351 360 302 292 356 194 245 270 272 266 274 283 318 236 131 81 271 214 147 139 128 277 284 288 97 288 291 288 292 292 158 23 6 16 13 356 351 347 344 343 342 338 335 333 334 333
69 60 35 36 39 105 103 70 20 34 70 96 106 82 76 101 86 34 17 27 26 10 24 41 63 40 352 239 349 357 348 344 339 23 84 123 273 252 280 357 346 329 40 328 303 326 359 70 294 288 272 266 279 307 9 21 56 39 302 118 139 205 170 212 245 305 343 274 301 301 291 284 65 10 360 8 6 353 348 347 345 340 338 337 334 332 332 331
70 59 48 45 58 116 99 97 98 71 77 116 88 61 61 73 64 47 20 19 12 22 41 12 6 16 283 209 106 259 288 31 3 16 86 132 213 262 315 9 8 14 58 113 325 339 326 278 353 340 331 329 330 342 340 335 3 339 308 318 266 230 264 260 257 9 205 227 314 309 293 292 334 353 351 0 1 348 344 344 342 337 337 335 331 329 329 329
75 61 51 53 74 94 88 113 130 123 141 109 72 54 65 56 47 52 53 26 20 49 60 325 296 308 296 316 14 304 18 66 299 341 48 89 254 260 297 6 10 18 58 105 338 349 272 235 81 65 353 330 325 320 320 320 325 318 302 307 289 214 224 292 286 309 288 301 325 286 283 297 318 337 344 353 352 343 340 338 336 336 336 332 328 326 326 326
82 69 48 51 68 80 78 91 108 112 142 119 71 42 59 52 23 44 40 29 26 24 25 337 301 285 350 30 22 332 341 24 334 33 63 55 274 259 245 7 352 352 19 4 350 32 126 306 106 130 217 274 279 283 297 309 308 303 305 311 316 185 85 41 298 282 303 314 304 277 286 302 316 331 343 348 345 339 334 333 334 335 333 329 326 323 322 325
78 60 41 54 64 70 67 68 82 96 140 132 101 49 70 56 323 23 28 25 22 14 36 32 25 35 28 26 24 321 315 337 31 59 93 232 254 278 280 250 324 337 346 4 355 49 77 345 301 187 250 263 269 281 292 298 288 292 305 318 358 44 31 49 283 292 325 326 305 306 314 313 315 326 343 346 340 334 329 330 330 330 328 326 324 321 320 324
90 91 82 90 81 61 56 53 70 81 89 99 103 111 91 61 23 28 343 340 14 30 43 28 21 29 37 29 55 282 320 345 360 6 238 260 287 4 335 264 269 329 346 18 10 78 105 280 256 227 274 278 279 284 291 295 292 298 310 335 61 42 37 50 276 294 334 315 295 308 317 313 312 325 342 340 334 330 327 326 324 323 324 324 323 320 320 325
111 113 84 83 95 105 106 96 84 80 69 66 79 63 91 93 65 243 305 355 360 10 32 37 333 336 325 25 84 169 312 349 323 290 256 259 293 41 319 280 245 334 21 30 7 63 116 258 268 262 281 286 288 285 289 299 305 311 319 95 64 44 38 350 299 296 298 281 287 305 311 306 310 326 329 329 331 329 324 321 320 322 323 323 322 321 323 327
119 124 111 101 93 85 92 87 81 80 52 36 68 44 71 113 129 232 32 39 354 335 15 58 302 305 296 42 78 151 228 213 230 254 217 161 313 215 180 214 204 339 19 28 348 19 57 298 293 351 305 294 293 295 305 310 309 312 319 8 6 20 10 340 321 311 303 297 303 310 308 304 316 325 319 324 330 327 320 319 321 322 322 322 321 323 326 328
116 123 121 110 87 38 57 59 66 89 41 12 66 210 340 91 159 157 56 47 76 3 355 22 315 310 315 45 67 180 239 229 221 235 204 203 256 223 212 221 183 167 7 11 330 4 29 314 321 29 353 292 294 319 322 314 310 309 309 333 352 359 347 319 297 305 314 313 313 313 310 309 321 324 321 325 329 324 318 320 321 321 320 319 321 325 328 327
117 124 121 109 85 13 25 30 37 74 63 333 63 167 96 127 167 113 83 33 56 54 19 351 348 341 1 12 354 292 269 251 215 257 359 261 199 144 114 99 116 128 151 132 338 349 33 336 326 12 337 297 314 328 319 313 319 324 308 319 357 336 319 290 281 306 316 315 313 314 314 315 322 325 325 326 327 323 319 320 321 319 318 318 323 327 327 326